This is the latest recevied weather packets stored in our database for station/object WD4ITN. If no packets are shown the sender has not sent any weather packets the latest 1 day(s).
| Time | Temp. | Humidity | Pressure | Rain* | Wind** | Luminosity | Snow |
|---|---|---|---|---|---|---|---|
| 1778070804 | 12.22° C | 97% | 1008.7 hPa | 6.6 mm | - | - | - |
| 1778069892 | 12.22° C | 97% | 1008.8 hPa | 6.35 mm | - | - | - |
| 1778069309 | 11.67° C | 97% | 1008.8 hPa | 6.35 mm | - | - | - |
| 1778069010 | 11.67° C | 97% | 1008.8 hPa | 6.35 mm | - | - | - |
| 1778068395 | 11.67° C | 96% | 1009 hPa | 6.1 mm | - | - | - |
| 1778067498 | 11.67° C | 96% | 1009.1 hPa | 4.32 mm | - | - | - |
| 1778066621 | 11.67° C | 95% | 1009 hPa | 3.05 mm | - | - | - |
| 1778066309 | 11.67° C | 95% | 1009 hPa | 2.79 mm | - | - | - |
| 1778066008 | 11.67° C | 95% | 1008.9 hPa | 2.79 mm | - | - | - |
| 1778065699 | 11.67° C | 95% | 1008.9 hPa | 2.54 mm | - | - | - |
| 1778065395 | 11.67° C | 95% | 1008.7 hPa | 2.29 mm | - | - | - |
| 1778065115 | 11.67° C | 94% | 1008.8 hPa | 2.03 mm | - | - | - |
| 1778064499 | 11.67° C | 94% | 1008.6 hPa | 1.78 mm | - | - | - |
| 1778063613 | 11.67° C | 92% | 1008.6 hPa | 1.27 mm | - | - | - |
| 1778063310 | 12.22° C | 92% | 1008.4 hPa | 1.27 mm | - | - | - |
| 1778062397 | 12.22° C | 90% | 1008.7 hPa | 0.76 mm | - | - | - |
| 1778062109 | 12.22° C | 89% | 1008.7 hPa | 0.76 mm | - | - | - |
| 1778061797 | 12.78° C | 87% | 1008.8 hPa | 0.51 mm | - | - | - |
| 1778061500 | 12.78° C | 86% | 1008.9 hPa | 0.51 mm | - | - | - |
| 1778060000 | 13.89° C | 76% | 1008.5 hPa | 0 mm | - | - | - |
| 1778059699 | 13.89° C | 76% | 1008.5 hPa | 0 mm | - | - | - |
| 1778059111 | 13.33° C | 77% | 1008.4 hPa | 0 mm | - | - | - |
| 1778058807 | 13.33° C | 77% | 1008.6 hPa | 0 mm | - | - | - |
| 1778058200 | 13.33° C | 75% | 1008.7 hPa | 0 mm | - | - | - |
| 1778057902 | 13.33° C | 74% | 1008.5 hPa | 0 mm | - | - | - |
* Rain since midnight (hover to see other rain measurements)
** Current wind speed in m/s (hover to see current wind gust speed)